| time (UTC) | temp F | wind direction | speed MPH | gust MPH | rain 1hr in | rain 24hr in | rain mn in | humidity % | barometer mb |
| 20260507205005 | 73 | 94 | 3.0 | 10.0 | 0.00 | 0.00 | 0.00 | 21 | 1018.4 |
| 20260507204507 | 73 | 70 | 3.0 | 10.0 | 0.00 | 0.00 | 0.00 | 21 | 1018.5 |
| 20260507204004 | 73 | 295 | 4.0 | 8.0 | 0.00 | 0.00 | 0.00 | 21 | 1018.5 |
| 20260507203507 | 73 | 11 | 5.0 | 8.0 | 0.00 | 0.00 | 0.00 | 21 | 1018.6 |
| 20260507203002 | 72 | 89 | 1.0 | 7.0 | 0.00 | 0.00 | 0.00 | 21 | 1018.6 |
| 20260507202502 | 73 | 35 | 3.0 | 7.0 | 0.00 | 0.00 | 0.00 | 21 | 1018.7 |
| 20260507202001 | 73 | 58 | 1.0 | 5.0 | 0.00 | 0.00 | 0.00 | 20 | 1018.8 |
| 20260507201617 | 73 | 6 | 2.0 | 5.0 | 0.00 | 0.00 | 0.00 | 20 | 1018.9 |
| 20260507201100 | 73 | 41 | 1.0 | 6.0 | 0.00 | 0.00 | 0.00 | 20 | 1018.9 |
| 20260507200558 | 73 | 108 | 2.0 | 7.0 | 0.00 | 0.00 | 0.00 | 20 | 1019.0 |
| 20260507200109 | 73 | 136 | 2.0 | 7.0 | 0.00 | 0.00 | 0.00 | 22 | 1019.1 |
| 20260507195556 | 72 | 95 | 4.0 | 8.0 | 0.00 | 0.00 | 0.00 | 21 | 1019.1 |
| 20260507195055 | 72 | 193 | 3.0 | 8.0 | 0.00 | 0.00 | 0.00 | 21 | 1019.3 |
| 20260507194555 | 71 | 133 | 5.0 | 14.0 | 0.00 | 0.00 | 0.00 | 22 | 1019.3 |
| 20260507194054 | 71 | 136 | 6.0 | 14.0 | 0.00 | 0.00 | 0.00 | 21 | 1019.3 |
| 20260507193553 | 70 | 117 | 5.0 | 11.0 | 0.00 | 0.00 | 0.00 | 22 | 1019.3 |
| 20260507193054 | 71 | 115 | 5.0 | 10.0 | 0.00 | 0.00 | 0.00 | 22 | 1019.4 |
| 20260507192554 | 70 | 167 | 5.0 | 16.0 | 0.00 | 0.00 | 0.00 | 23 | 1019.4 |
| 20260507192050 | 69 | 90 | 7.0 | 15.0 | 0.00 | 0.00 | 0.00 | 23 | 1019.5 |
| 20260507191548 | 69 | 157 | 9.0 | 18.0 | 0.00 | 0.00 | 0.00 | 22 | 1019.7 |
| 20260507191046 | 68 | 181 | 10.0 | 18.0 | 0.00 | 0.00 | 0.00 | 23 | 1019.7 |
| 20260507190549 | 68 | 152 | 6.0 | 18.0 | 0.00 | 0.00 | 0.00 | 24 | 1019.8 |
| 20260507190049 | 68 | 134 | 7.0 | 18.0 | 0.00 | 0.00 | 0.00 | 24 | 1019.8 |
| 20260507185549 | 68 | 123 | 7.0 | 17.0 | 0.00 | 0.00 | 0.00 | 24 | 1019.9 |
| 20260507185043 | 68 | 131 | 8.0 | 17.0 | 0.00 | 0.00 | 0.00 | 24 | 1019.9 |
| 20260507184547 | 67 | 174 | 6.0 | 15.0 | 0.00 | 0.00 | 0.00 | 25 | 1020.0 |
| 20260507184041 | 67 | 149 | 7.0 | 18.0 | 0.00 | 0.00 | 0.00 | 24 | 1020.2 |
| 20260507183539 | 66 | 124 | 8.0 | 18.0 | 0.00 | 0.00 | 0.00 | 26 | 1020.2 |
| 20260507183041 | 66 | 117 | 8.0 | 14.0 | 0.00 | 0.00 | 0.00 | 25 | 1020.4 |
| 20260507182538 | 66 | 117 | 7.0 | 17.0 | 0.00 | 0.00 | 0.00 | 26 | 1020.4 |
| 20260507182037 | 65 | 139 | 10.0 | 17.0 | 0.00 | 0.00 | 0.00 | 25 | 1020.5 |
| 20260507181535 | 65 | 144 | 7.0 | 16.0 | 0.00 | 0.00 | 0.00 | 26 | 1020.5 |
| 20260507181035 | 65 | 158 | 6.0 | 16.0 | 0.00 | 0.00 | 0.00 | 26 | 1020.6 |
| 20260507180537 | 64 | 203 | 7.0 | 18.0 | 0.00 | 0.00 | 0.00 | 26 | 1020.7 |
| 20260507180038 | 64 | 144 | 9.0 | 18.0 | 0.00 | 0.00 | 0.00 | 25 | 1020.6 |
| 20260507175532 | 64 | 153 | 9.0 | 17.0 | 0.00 | 0.00 | 0.00 | 24 | 1020.7 |
| 20260507175033 | 64 | 148 | 8.0 | 17.0 | 0.00 | 0.00 | 0.00 | 25 | 1020.8 |
| 20260507174530 | 64 | 167 | 10.0 | 19.0 | 0.00 | 0.00 | 0.00 | 25 | 1020.8 |
| 20260507174032 | 64 | 172 | 11.0 | 19.0 | 0.00 | 0.00 | 0.00 | 25 | 1020.9 |
| 20260507173531 | 63 | 170 | 10.0 | 19.0 | 0.00 | 0.00 | 0.00 | 25 | 1020.9 |
| 20260507173031 | 63 | 125 | 8.0 | 19.0 | 0.00 | 0.00 | 0.00 | 25 | 1020.9 |
| 20260507172526 | 63 | 159 | 11.0 | 20.0 | 0.00 | 0.00 | 0.00 | 24 | 1021.0 |
| 20260507172024 | 62 | 166 | 11.0 | 20.0 | 0.00 | 0.00 | 0.00 | 25 | 1020.9 |
| 20260507171523 | 62 | 158 | 7.0 | 23.0 | 0.00 | 0.00 | 0.00 | 25 | 1021.1 |
| 20260507171022 | 61 | 111 | 11.0 | 23.0 | 0.00 | 0.00 | 0.00 | 26 | 1021.1 |
| 20260507170520 | 61 | 186 | 8.0 | 21.0 | 0.00 | 0.00 | 0.00 | 27 | 1021.0 |
| 20260507170020 | 60 | 163 | 11.0 | 20.0 | 0.00 | 0.00 | 0.00 | 27 | 1021.1 |
| 20260507165518 | 60 | 160 | 9.0 | 18.0 | 0.00 | 0.00 | 0.00 | 28 | 1021.1 |
| 20260507165018 | 59 | 153 | 7.0 | 25.0 | 0.00 | 0.00 | 0.00 | 29 | 1021.3 |
| 20260507164516 | 59 | 146 | 11.0 | 25.0 | 0.00 | 0.00 | 0.00 | 29 | 1021.2 |
| 20260507164015 | 59 | 151 | 9.0 | 19.0 | 0.00 | 0.00 | 0.00 | 30 | 1021.3 |
| 20260507163516 | 59 | 174 | 9.0 | 23.0 | 0.00 | 0.00 | 0.00 | 30 | 1021.5 |
| 20260507163014 | 59 | 160 | 11.0 | 23.0 | 0.00 | 0.00 | 0.00 | 30 | 1021.3 |
| 20260507162514 | 59 | 176 | 11.0 | 19.0 | 0.00 | 0.00 | 0.00 | 30 | 1021.3 |
| 20260507162014 | 58 | 145 | 11.0 | 19.0 | 0.00 | 0.00 | 0.00 | 30 | 1021.3 |
| 20260507161512 | 58 | 146 | 9.0 | 20.0 | 0.00 | 0.00 | 0.00 | 31 | 1021.3 |
| 20260507161012 | 58 | 155 | 10.0 | 20.0 | 0.00 | 0.00 | 0.00 | 32 | 1021.3 |
| 20260507160510 | 57 | 167 | 10.0 | 21.0 | 0.00 | 0.00 | 0.00 | 33 | 1021.3 |
| 20260507160009 | 57 | 156 | 11.0 | 21.0 | 0.00 | 0.00 | 0.00 | 33 | 1021.3 |
| 20260507155508 | 57 | 149 | 9.0 | 15.0 | 0.00 | 0.00 | 0.00 | 35 | 1021.3 |
| 20260507155007 | 56 | 143 | 9.0 | 19.0 | 0.00 | 0.00 | 0.00 | 36 | 1021.3 |
| 20260507154506 | 56 | 139 | 9.0 | 19.0 | 0.00 | 0.00 | 0.00 | 36 | 1021.4 |
| 20260507154009 | 56 | 130 | 10.0 | 18.0 | 0.00 | 0.00 | 0.00 | 38 | 1021.5 |
| 20260507153504 | 55 | 164 | 11.0 | 21.0 | 0.00 | 0.00 | 0.00 | 39 | 1021.6 |
| 20260507153003 | 55 | 153 | 9.0 | 22.0 | 0.00 | 0.00 | 0.00 | 38 | 1021.6 |
| 20260507152503 | 55 | 156 | 8.0 | 22.0 | 0.00 | 0.00 | 0.00 | 38 | 1021.6 |
| 20260507152003 | 55 | 148 | 10.0 | 20.0 | 0.00 | 0.00 | 0.00 | 41 | 1021.6 |
| 20260507151503 | 55 | 189 | 9.0 | 20.0 | 0.00 | 0.00 | 0.00 | 41 | 1021.6 |
| 20260507151003 | 55 | 149 | 11.0 | 19.0 | 0.00 | 0.00 | 0.00 | 40 | 1021.6 |
| 20260507150502 | 55 | 153 | 9.0 | 23.0 | 0.00 | 0.00 | 0.00 | 40 | 1021.5 |
| 20260507150002 | 55 | 160 | 10.0 | 23.0 | 0.00 | 0.00 | 0.00 | 41 | 1021.6 |
| 20260507145500 | 55 | 175 | 14.0 | 23.0 | 0.00 | 0.00 | 0.00 | 41 | 1021.6 |
| 20260507145101 | 55 | 153 | 10.0 | 22.0 | 0.00 | 0.00 | 0.00 | 41 | 1021.6 |
| 20260507144558 | 54 | 180 | 13.0 | 22.0 | 0.00 | 0.00 | 0.00 | 40 | 1021.6 |
| 20260507144101 | 53 | 113 | 10.0 | 23.0 | 0.00 | 0.00 | 0.00 | 42 | 1021.6 |
| 20260507143557 | 53 | 131 | 13.0 | 23.0 | 0.00 | 0.00 | 0.00 | 43 | 1021.7 |
| 20260507143103 | 53 | 165 | 10.0 | 23.0 | 0.00 | 0.00 | 0.00 | 43 | 1021.8 |
| 20260507142557 | 53 | 130 | 10.0 | 23.0 | 0.00 | 0.00 | 0.00 | 42 | 1021.7 |
| 20260507142056 | 53 | 146 | 11.0 | 25.0 | 0.00 | 0.00 | 0.00 | 40 | 1021.8 |
| 20260507141556 | 53 | 167 | 12.0 | 25.0 | 0.00 | 0.00 | 0.00 | 39 | 1021.6 |
| 20260507141056 | 53 | 149 | 7.0 | 22.0 | 0.00 | 0.00 | 0.00 | 40 | 1021.7 |
| 20260507140556 | 53 | 153 | 11.0 | 23.0 | 0.00 | 0.00 | 0.00 | 40 | 1021.7 |
| 20260507140057 | 53 | 154 | 14.0 | 23.0 | 0.00 | 0.00 | 0.00 | 40 | 1021.7 |
| 20260507135554 | 53 | 122 | 13.0 | 22.0 | 0.00 | 0.00 | 0.00 | 43 | 1021.7 |
| 20260507135054 | 52 | 155 | 8.0 | 25.0 | 0.00 | 0.00 | 0.00 | 44 | 1021.8 |
| 20260507134557 | 52 | 163 | 11.0 | 26.0 | 0.00 | 0.00 | 0.00 | 44 | 1021.8 |
| 20260507134054 | 52 | 146 | 12.0 | 23.0 | 0.00 | 0.00 | 0.00 | 46 | 1021.7 |
| 20260507133555 | 51 | 169 | 8.0 | 18.0 | 0.00 | 0.00 | 0.00 | 52 | 1021.8 |
| 20260507133120 | 51 | 158 | 8.0 | 19.0 | 0.00 | 0.00 | 0.00 | 53 | 1021.7 |
| 20260507132555 | 51 | 124 | 10.0 | 19.0 | 0.00 | 0.00 | 0.00 | 54 | 1021.7 |
| 20260507132052 | 50 | 169 | 8.0 | 19.0 | 0.00 | 0.00 | 0.00 | 54 | 1021.8 |
| 20260507131555 | 50 | 130 | 7.0 | 16.0 | 0.00 | 0.00 | 0.00 | 55 | 1021.8 |
| 20260507131052 | 50 | 169 | 8.0 | 16.0 | 0.00 | 0.00 | 0.00 | 55 | 1021.8 |
| 20260507130551 | 50 | 116 | 7.0 | 16.0 | 0.00 | 0.00 | 0.00 | 55 | 1021.7 |
| 20260507130105 | 50 | 146 | 8.0 | 17.0 | 0.00 | 0.00 | 0.00 | 55 | 1021.7 |
| 20260507125549 | 51 | 192 | 9.0 | 18.0 | 0.00 | 0.00 | 0.00 | 49 | 1021.7 |
| 20260507125048 | 51 | 169 | 8.0 | 18.0 | 0.00 | 0.00 | 0.00 | 44 | 1021.8 |
| 20260507124548 | 51 | 180 | 7.0 | 14.0 | 0.00 | 0.00 | 0.00 | 42 | 1021.8 |
| 20260507124048 | 51 | 194 | 6.0 | 16.0 | 0.00 | 0.00 | 0.00 | 41 | 1021.7 |
| 20260507123548 | 51 | 146 | 5.0 | 16.0 | 0.00 | 0.00 | 0.00 | 38 | 1021.8 |
| 20260507123051 | 51 | 233 | 6.0 | 15.0 | 0.00 | 0.00 | 0.00 | 38 | 1021.8 |
| 20260507122546 | 51 | 188 | 7.0 | 19.0 | 0.00 | 0.00 | 0.00 | 38 | 1021.6 |
| 20260507122047 | 51 | 180 | 8.0 | 19.0 | 0.00 | 0.00 | 0.00 | 37 | 1021.8 |
| 20260507121601 | 51 | 178 | 7.0 | 21.0 | 0.00 | 0.00 | 0.00 | 37 | 1021.7 |
| 20260507121046 | 51 | 144 | 9.0 | 21.0 | 0.00 | 0.00 | 0.00 | 37 | 1021.5 |
| 20260507120544 | 51 | 147 | 11.0 | 19.0 | 0.00 | 0.00 | 0.00 | 38 | 1021.5 |
| 20260507120053 | 51 | 232 | 9.0 | 17.0 | 0.00 | 0.00 | 0.00 | 39 | 1021.5 |
| 20260507115542 | 50 | 208 | 7.0 | 13.0 | 0.00 | 0.00 | 0.00 | 42 | 1021.6 |
| 20260507115041 | 50 | 147 | 4.0 | 13.0 | 0.00 | 0.00 | 0.00 | 47 | 1021.6 |
| 20260507114614 | 50 | 137 | 6.0 | 16.0 | 0.00 | 0.00 | 0.00 | 50 | 1021.7 |
| 20260507114040 | 50 | 143 | 4.0 | 16.0 | 0.00 | 0.00 | 0.00 | 52 | 1021.7 |
| 20260507113541 | 50 | 161 | 7.0 | 11.0 | 0.00 | 0.00 | 0.00 | 52 | 1021.8 |
| 20260507113038 | 50 | 155 | 5.0 | 11.0 | 0.00 | 0.00 | 0.00 | 50 | 1021.9 |
| 20260507112536 | 50 | 153 | 5.0 | 11.0 | 0.00 | 0.00 | 0.00 | 48 | 1022.0 |
| 20260507112038 | 51 | 194 | 5.0 | 12.0 | 0.00 | 0.00 | 0.00 | 46 | 1022.1 |
| 20260507111536 | 51 | 164 | 6.0 | 13.0 | 0.00 | 0.00 | 0.00 | 43 | 1022.1 |
| 20260507111034 | 51 | 184 | 5.0 | 13.0 | 0.00 | 0.00 | 0.00 | 41 | 1022.1 |
| 20260507110534 | 51 | 162 | 5.0 | 13.0 | 0.00 | 0.00 | 0.00 | 42 | 1022.1 |
| 20260507110033 | 51 | 171 | 6.0 | 15.0 | 0.00 | 0.00 | 0.00 | 45 | 1022.0 |
| 20260507105533 | 51 | 157 | 7.0 | 16.0 | 0.00 | 0.00 | 0.00 | 45 | 1022.0 |
| 20260507105037 | 52 | 155 | 8.0 | 18.0 | 0.00 | 0.00 | 0.00 | 43 | 1022.0 |
| 20260507104531 | 52 | 133 | 8.0 | 18.0 | 0.00 | 0.00 | 0.00 | 42 | 1021.9 |
| 20260507104031 | 52 | 171 | 8.0 | 16.0 | 0.00 | 0.00 | 0.00 | 41 | 1022.0 |
| 20260507103532 | 52 | 156 | 7.0 | 15.0 | 0.00 | 0.00 | 0.00 | 42 | 1022.1 |
| 20260507103029 | 52 | 169 | 7.0 | 19.0 | 0.00 | 0.00 | 0.00 | 42 | 1022.2 |
| 20260507102529 | 52 | 162 | 8.0 | 19.0 | 0.00 | 0.00 | 0.00 | 41 | 1022.2 |
| 20260507102029 | 52 | 226 | 8.0 | 16.0 | 0.00 | 0.00 | 0.00 | 40 | 1022.2 |
| 20260507101528 | 52 | 154 | 9.0 | 16.0 | 0.00 | 0.00 | 0.00 | 38 | 1022.2 |
| 20260507101027 | 52 | 153 | 8.0 | 16.0 | 0.00 | 0.00 | 0.00 | 38 | 1022.2 |
| 20260507100526 | 52 | 204 | 8.0 | 16.0 | 0.00 | 0.00 | 0.00 | 38 | 1022.3 |
| 20260507100027 | 52 | 157 | 6.0 | 15.0 | 0.00 | 0.00 | 0.00 | 38 | 1022.2 |
| 20260507095526 | 52 | 195 | 7.0 | 16.0 | 0.00 | 0.01 | 0.00 | 38 | 1022.3 |
| 20260507095024 | 52 | 169 | 7.0 | 13.0 | 0.00 | 0.01 | 0.00 | 39 | 1022.4 |
| 20260507094524 | 52 | 146 | 8.0 | 13.0 | 0.00 | 0.01 | 0.00 | 39 | 1022.5 |
| 20260507094022 | 52 | 201 | 6.0 | 14.0 | 0.00 | 0.01 | 0.00 | 39 | 1022.6 |
| 20260507093522 | 52 | 152 | 6.0 | 13.0 | 0.00 | 0.01 | 0.00 | 40 | 1022.7 |
| 20260507093025 | 52 | 150 | 5.0 | 12.0 | 0.00 | 0.01 | 0.00 | 41 | 1022.7 |
| 20260507092521 | 52 | 166 | 7.0 | 15.0 | 0.00 | 0.01 | 0.00 | 42 | 1022.8 |
| 20260507092021 | 52 | 146 | 7.0 | 16.0 | 0.00 | 0.01 | 0.00 | 45 | 1022.8 |
| 20260507091529 | 52 | 158 | 7.0 | 17.0 | 0.00 | 0.01 | 0.00 | 46 | 1022.8 |
| 20260507091021 | 52 | 111 | 8.0 | 18.0 | 0.00 | 0.01 | 0.00 | 46 | 1022.8 |
| 20260507090521 | 52 | 140 | 5.0 | 18.0 | 0.00 | 0.01 | 0.00 | 47 | 1022.9 |
| 20260507090022 | 52 | 115 | 9.0 | 16.0 | 0.00 | 0.01 | 0.00 | 46 | 1023.0 |
| 20260507085516 | 52 | 166 | 6.0 | 16.0 | 0.00 | 0.15 | 0.00 | 44 | 1023.0 |
| 20260507085016 | 52 | 142 | 8.0 | 15.0 | 0.00 | 0.15 | 0.00 | 43 | 1023.0 |
| 20260507084515 | 52 | 138 | 7.0 | 14.0 | 0.00 | 0.15 | 0.00 | 43 | 1023.0 |
| 20260507084014 | 52 | 148 | 7.0 | 14.0 | 0.00 | 0.15 | 0.00 | 42 | 1023.0 |
| 20260507083513 | 52 | 154 | 4.0 | 11.0 | 0.00 | 0.15 | 0.00 | 41 | 1023.0 |
| 20260507083013 | 52 | 161 | 5.0 | 11.0 | 0.00 | 0.15 | 0.00 | 42 | 1023.1 |
| 20260507082512 | 51 | 148 | 4.0 | 12.0 | 0.00 | 0.15 | 0.00 | 42 | 1023.1 |
| 20260507082011 | 52 | 169 | 5.0 | 12.0 | 0.00 | 0.15 | 0.00 | 42 | 1023.2 |
| 20260507081511 | 52 | 149 | 6.0 | 12.0 | 0.00 | 0.15 | 0.00 | 41 | 1023.2 |
| 20260507081010 | 52 | 190 | 4.0 | 10.0 | 0.00 | 0.15 | 0.00 | 40 | 1023.2 |
| 20260507080509 | 52 | 124 | 5.0 | 10.0 | 0.00 | 0.15 | 0.00 | 40 | 1023.4 |
| 20260507080007 | 52 | 154 | 4.0 | 11.0 | 0.00 | 0.15 | 0.00 | 40 | 1023.4 |
| 20260507075510 | 52 | 163 | 6.0 | 10.0 | 0.00 | 0.15 | 0.00 | 42 | 1023.4 |
| 20260507075011 | 52 | 131 | 4.0 | 10.0 | 0.00 | 0.15 | 0.00 | 42 | 1023.4 |
| 20260507074507 | 52 | 178 | 4.0 | 14.0 | 0.00 | 0.15 | 0.00 | 43 | 1023.5 |
| 20260507074006 | 53 | 137 | 5.0 | 16.0 | 0.00 | 0.15 | 0.00 | 44 | 1023.5 |
| 20260507073505 | 53 | 234 | 8.0 | 16.0 | 0.00 | 0.15 | 0.00 | 46 | 1023.5 |
| 20260507073005 | 53 | 184 | 7.0 | 14.0 | 0.00 | 0.15 | 0.00 | 46 | 1023.5 |
| 20260507072503 | 53 | 148 | 6.0 | 15.0 | 0.00 | 0.15 | 0.00 | 45 | 1023.7 |
| 20260507072002 | 53 | 130 | 8.0 | 15.0 | 0.00 | 0.15 | 0.00 | 44 | 1023.7 |
| 20260507071502 | 53 | 137 | 6.0 | 13.0 | 0.00 | 0.15 | 0.00 | 43 | 1023.7 |
| 20260507071001 | 53 | 161 | 6.0 | 13.0 | 0.00 | 0.15 | 0.00 | 43 | 1023.7 |
| 20260507070601 | 53 | 159 | 5.0 | 12.0 | 0.00 | 0.15 | 0.00 | 43 | 1023.8 |
| 20260507070059 | 53 | 138 | 5.0 | 11.0 | 0.00 | 0.15 | 0.00 | 43 | 1023.7 |
| 20260507065558 | 52 | 161 | 4.0 | 10.0 | 0.00 | 0.15 | 0.00 | 42 | 1023.9 |
| 20260507065056 | 52 | 154 | 5.0 | 10.0 | 0.00 | 0.15 | 0.00 | 41 | 1023.7 |
| 20260507064559 | 52 | 231 | 3.0 | 7.0 | 0.00 | 0.15 | 0.00 | 41 | 1023.7 |
| 20260507064055 | 51 | 233 | 1.0 | 6.0 | 0.00 | 0.15 | 0.00 | 41 | 1023.8 |
| 20260507063554 | 51 | 221 | 1.0 | 6.0 | 0.00 | 0.15 | 0.00 | 41 | 1023.9 |
| 20260507063102 | 51 | 161 | 1.0 | 6.0 | 0.00 | 0.15 | 0.00 | 41 | 1023.8 |
| 20260507062552 | 52 | 211 | 2.0 | 6.0 | 0.00 | 0.15 | 0.00 | 42 | 1023.8 |
| 20260507062052 | 52 | 233 | 2.0 | 5.0 | 0.00 | 0.15 | 0.00 | 43 | 1023.9 |
| 20260507061552 | 52 | 230 | 2.0 | 5.0 | 0.00 | 0.15 | 0.00 | 42 | 1023.9 |
| 20260507061051 | 52 | 154 | 2.0 | 8.0 | 0.00 | 0.15 | 0.00 | 41 | 1023.8 |
| 20260507060550 | 52 | 186 | 3.0 | 8.0 | 0.00 | 0.15 | 0.00 | 41 | 1023.8 |
| 20260507060049 | 52 | 136 | 2.0 | 9.0 | 0.00 | 0.15 | 0.00 | 40 | 1023.8 |
| 20260507055549 | 52 | 132 | 2.0 | 7.0 | 0.00 | 0.15 | 0.15 | 39 | 1023.7 |
| 20260507055048 | 51 | 153 | 2.0 | 6.0 | 0.00 | 0.15 | 0.15 | 38 | 1023.8 |
| 20260507054551 | 51 | 226 | 2.0 | 5.0 | 0.00 | 0.15 | 0.15 | 38 | 1023.7 |
| 20260507054049 | 51 | 146 | 1.0 | 5.0 | 0.00 | 0.15 | 0.15 | 38 | 1023.7 |
| 20260507053549 | 51 | 194 | 1.0 | 5.0 | 0.00 | 0.15 | 0.15 | 38 | 1023.6 |
| 20260507053049 | 51 | 159 | 1.0 | 4.0 | 0.00 | 0.15 | 0.15 | 38 | 1023.7 |
| 20260507052548 | 51 | 220 | 2.0 | 5.0 | 0.00 | 0.15 | 0.15 | 37 | 1023.7 |
| 20260507052048 | 51 | 217 | 2.0 | 5.0 | 0.00 | 0.15 | 0.15 | 37 | 1023.7 |
| 20260507051548 | 51 | 248 | 2.0 | 4.0 | 0.00 | 0.15 | 0.15 | 38 | 1023.7 |
| 20260507051047 | 51 | 218 | 1.0 | 6.0 | 0.00 | 0.15 | 0.15 | 37 | 1023.6 |
| 20260507050549 | 51 | 142 | 3.0 | 6.0 | 0.00 | 0.15 | 0.15 | 36 | 1023.7 |
| 20260507050047 | 52 | 156 | 2.0 | 6.0 | 0.00 | 0.15 | 0.15 | 35 | 1023.7 |
| 20260507045547 | 53 | 184 | 2.0 | 4.0 | 0.00 | 0.15 | 0.15 | 33 | 1023.8 |
| 20260507045047 | 53 | 248 | 2.0 | 6.0 | 0.00 | 0.15 | 0.15 | 33 | 1023.8 |
| 20260507044547 | 53 | 234 | 3.0 | 6.0 | 0.00 | 0.15 | 0.15 | 33 | 1023.8 |
| 20260507044046 | 53 | 239 | 3.0 | 5.0 | 0.00 | 0.15 | 0.15 | 33 | 1023.8 |
| 20260507043546 | 53 | 236 | 3.0 | 5.0 | 0.00 | 0.15 | 0.15 | 33 | 1023.8 |
| 20260507043046 | 53 | 246 | 2.0 | 6.0 | 0.00 | 0.15 | 0.15 | 34 | 1023.7 |
| 20260507042546 | 53 | 229 | 3.0 | 6.0 | 0.00 | 0.15 | 0.15 | 34 | 1023.6 |
| 20260507042045 | 53 | 211 | 2.0 | 5.0 | 0.00 | 0.15 | 0.15 | 34 | 1023.7 |
| 20260507041545 | 53 | 233 | 2.0 | 6.0 | 0.00 | 0.15 | 0.15 | 34 | 1023.7 |
| 20260507041051 | 53 | 231 | 3.0 | 8.0 | 0.00 | 0.15 | 0.15 | 34 | 1023.7 |
| 20260507040545 | 53 | 234 | 4.0 | 8.0 | 0.00 | 0.15 | 0.15 | 34 | 1023.7 |
| 20260507040048 | 53 | 227 | 3.0 | 5.0 | 0.00 | 0.15 | 0.15 | 34 | 1023.8 |
| 20260507035544 | 53 | 220 | 2.0 | 5.0 | 0.00 | 0.15 | 0.15 | 34 | 1023.8 |
| 20260507035044 | 53 | 234 | 2.0 | 6.0 | 0.00 | 0.15 | 0.15 | 34 | 1023.8 |
| 20260507034548 | 53 | 233 | 2.0 | 7.0 | 0.00 | 0.15 | 0.15 | 35 | 1023.9 |
| 20260507034045 | 53 | 246 | 3.0 | 7.0 | 0.00 | 0.15 | 0.15 | 35 | 1023.9 |
| 20260507033547 | 53 | 236 | 3.0 | 6.0 | 0.00 | 0.15 | 0.15 | 36 | 1023.8 |
| 20260507033049 | 53 | 207 | 1.0 | 3.0 | 0.00 | 0.15 | 0.15 | 34 | 1023.7 |
| 20260507032544 | 54 | 216 | 1.0 | 5.0 | 0.00 | 0.15 | 0.15 | 34 | 1023.6 |
| 20260507032043 | 54 | 223 | 2.0 | 6.0 | 0.00 | 0.15 | 0.15 | 34 | 1023.5 |
| 20260507031543 | 54 | 198 | 3.0 | 6.0 | 0.00 | 0.15 | 0.15 | 33 | 1023.4 |
| 20260507031046 | 54 | 226 | 0.0 | 0.0 | 0.00 | 0.15 | 0.15 | 33 | 1023.3 |
| 20260507030542 | 55 | 132 | 0.0 | 0.0 | 0.00 | 0.15 | 0.15 | 33 | 1023.3 |
| 20260507030043 | 55 | 132 | 0.0 | 0.0 | 0.00 | 0.15 | 0.15 | 31 | 1023.3 |
| 20260507025541 | 55 | 132 | 0.0 | 0.0 | 0.00 | 0.15 | 0.15 | 31 | 1023.3 |
| 20260507025041 | 56 | 132 | 0.0 | 0.0 | 0.00 | 0.15 | 0.15 | 29 | 1023.3 |
| 20260507024541 | 56 | 131 | 0.0 | 2.0 | 0.00 | 0.15 | 0.15 | 28 | 1023.4 |
| 20260507024044 | 57 | 131 | 0.0 | 2.0 | 0.00 | 0.15 | 0.15 | 28 | 1023.4 |
| 20260507023545 | 58 | 79 | 0.0 | 0.0 | 0.00 | 0.15 | 0.15 | 27 | 1023.3 |
| 20260507023047 | 58 | 79 | 0.0 | 1.0 | 0.00 | 0.15 | 0.15 | 26 | 1023.3 |
| 20260507022541 | 59 | 79 | 0.0 | 1.0 | 0.00 | 0.15 | 0.15 | 25 | 1023.3 |
| 20260507022041 | 59 | 79 | 0.0 | 1.0 | 0.00 | 0.15 | 0.15 | 24 | 1023.3 |
| 20260507021544 | 59 | 79 | 0.0 | 0.0 | 0.00 | 0.15 | 0.15 | 24 | 1023.3 |
| 20260507021041 | 60 | 65 | 0.0 | 0.0 | 0.00 | 0.15 | 0.15 | 23 | 1023.3 |
| 20260507020540 | 61 | 75 | 0.0 | 1.0 | 0.00 | 0.15 | 0.15 | 23 | 1023.3 |
| 20260507020059 | 61 | 28 | 0.0 | 1.0 | 0.00 | 0.15 | 0.15 | 22 | 1023.3 |
| 20260507015539 | 62 | 28 | 0.0 | 3.0 | 0.00 | 0.15 | 0.15 | 22 | 1023.3 |
| 20260507015039 | 61 | 28 | 1.0 | 5.0 | 0.00 | 0.15 | 0.15 | 21 | 1023.3 |
| 20260507014540 | 61 | 26 | 0.0 | 5.0 | 0.00 | 0.15 | 0.15 | 21 | 1023.3 |
| 20260507014039 | 62 | 11 | 3.0 | 5.0 | 0.00 | 0.15 | 0.15 | 22 | 1023.3 |
| 20260507013538 | 62 | 46 | 1.0 | 4.0 | 0.00 | 0.15 | 0.15 | 21 | 1023.4 |
| 20260507013049 | 62 | 281 | 1.0 | 5.0 | 0.00 | 0.15 | 0.15 | 21 | 1023.5 |
| 20260507012539 | 62 | 22 | 1.0 | 7.0 | 0.00 | 0.15 | 0.15 | 22 | 1023.4 |
| 20260507012038 | 62 | 25 | 3.0 | 8.0 | 0.00 | 0.15 | 0.15 | 21 | 1023.4 |
| 20260507011538 | 62 | 50 | 4.0 | 8.0 | 0.00 | 0.15 | 0.15 | 21 | 1023.5 |
| 20260507011041 | 62 | 15 | 5.0 | 8.0 | 0.00 | 0.15 | 0.15 | 22 | 1023.4 |
| 20260507010538 | 62 | 321 | 4.0 | 8.0 | 0.00 | 0.15 | 0.15 | 21 | 1023.5 |
| 20260507010037 | 62 | 319 | 3.0 | 8.0 | 0.00 | 0.15 | 0.15 | 21 | 1023.6 |
| 20260507005536 | 62 | 344 | 3.0 | 10.0 | 0.00 | 0.15 | 0.15 | 21 | 1023.6 |
| 20260507005039 | 62 | 315 | 3.0 | 10.0 | 0.00 | 0.15 | 0.15 | 22 | 1023.6 |
| 20260507004547 | 62 | 4 | 2.0 | 9.0 | 0.00 | 0.15 | 0.15 | 21 | 1023.6 |
| 20260507004036 | 62 | 318 | 2.0 | 11.0 | 0.00 | 0.15 | 0.15 | 21 | 1023.7 |
| 20260507003536 | 62 | 326 | 5.0 | 11.0 | 0.00 | 0.15 | 0.15 | 21 | 1023.7 |
| 20260507003042 | 62 | 335 | 4.0 | 12.0 | 0.00 | 0.15 | 0.15 | 22 | 1023.7 |
| 20260507002535 | 62 | 3 | 6.0 | 12.0 | 0.00 | 0.15 | 0.15 | 22 | 1023.6 |
| 20260507002035 | 62 | 35 | 5.0 | 14.0 | 0.00 | 0.15 | 0.15 | 21 | 1023.6 |
| 20260507001543 | 62 | 20 | 3.0 | 14.0 | 0.00 | 0.15 | 0.15 | 21 | 1023.5 |
| 20260507001034 | 62 | 15 | 8.0 | 13.0 | 0.00 | 0.15 | 0.15 | 21 | 1023.6 |
| 20260507000533 | 62 | 323 | 4.0 | 11.0 | 0.00 | 0.15 | 0.15 | 22 | 1023.7 |
| 20260507000035 | 62 | 41 | 3.0 | 13.0 | 0.00 | 0.15 | 0.15 | 22 | 1023.6 |
| 20260506235533 | 62 | 269 | 3.0 | 14.0 | 0.00 | 0.15 | 0.15 | 23 | 1023.6 |
| 20260506235035 | 62 | 335 | 4.0 | 14.0 | 0.00 | 0.15 | 0.15 | 22 | 1023.6 |
| 20260506234537 | 62 | 53 | 4.0 | 11.0 | 0.00 | 0.15 | 0.15 | 22 | 1023.7 |
| 20260506234031 | 62 | 6 | 5.0 | 11.0 | 0.00 | 0.15 | 0.15 | 22 | 1023.6 |
| 20260506233531 | 61 | 34 | 6.0 | 14.0 | 0.00 | 0.15 | 0.15 | 21 | 1023.6 |
| 20260506233031 | 61 | 7 | 6.0 | 14.0 | 0.00 | 0.15 | 0.15 | 22 | 1023.6 |
| 20260506232530 | 61 | 2 | 4.0 | 14.0 | 0.00 | 0.15 | 0.15 | 21 | 1023.6 |
| 20260506232030 | 62 | 340 | 9.0 | 17.0 | 0.00 | 0.15 | 0.15 | 22 | 1023.7 |
| 20260506231530 | 62 | 281 | 6.0 | 17.0 | 0.00 | 0.15 | 0.15 | 21 | 1023.7 |
| 20260506231030 | 61 | 357 | 1.0 | 11.0 | 0.00 | 0.15 | 0.15 | 22 | 1023.7 |
| 20260506230529 | 61 | 5 | 7.0 | 14.0 | 0.00 | 0.15 | 0.15 | 22 | 1023.7 |
| 20260506230029 | 61 | 27 | 6.0 | 18.0 | 0.00 | 0.15 | 0.15 | 23 | 1023.7 |
| 20260506225529 | 61 | 335 | 7.0 | 15.0 | 0.00 | 0.17 | 0.15 | 23 | 1023.7 |
| 20260506225029 | 62 | 356 | 7.0 | 14.0 | 0.00 | 0.17 | 0.15 | 23 | 1023.7 |
| 20260506224532 | 61 | 15 | 5.0 | 15.0 | 0.00 | 0.17 | 0.15 | 23 | 1023.7 |
| 20260506224029 | 61 | 321 | 7.0 | 15.0 | 0.00 | 0.17 | 0.15 | 23 | 1023.9 |
| 20260506223527 | 61 | 353 | 6.0 | 12.0 | 0.00 | 0.17 | 0.15 | 22 | 1023.9 |
| 20260506223034 | 61 | 293 | 4.0 | 15.0 | 0.00 | 0.17 | 0.15 | 24 | 1023.8 |
| 20260506222527 | 61 | 354 | 5.0 | 16.0 | 0.00 | 0.17 | 0.15 | 23 | 1023.9 |
| 20260506222028 | 61 | 347 | 8.0 | 16.0 | 0.00 | 0.17 | 0.15 | 23 | 1024.0 |
| 20260506221524 | 61 | 310 | 7.0 | 15.0 | 0.00 | 0.17 | 0.15 | 24 | 1023.9 |
| 20260506221024 | 60 | 316 | 6.0 | 19.0 | 0.00 | 0.17 | 0.15 | 24 | 1023.9 |
| 20260506220523 | 60 | 308 | 8.0 | 18.0 | 0.00 | 0.17 | 0.15 | 24 | 1024.0 |
| 20260506220025 | 60 | 290 | 7.0 | 15.0 | 0.00 | 0.17 | 0.15 | 24 | 1023.9 |
| 20260506215522 | 60 | 328 | 5.0 | 16.0 | 0.00 | 0.17 | 0.15 | 25 | 1024.2 |
| 20260506215026 | 60 | 354 | 8.0 | 16.0 | 0.00 | 0.17 | 0.15 | 25 | 1024.2 |
| 20260506214535 | 59 | 21 | 5.0 | 18.0 | 0.00 | 0.17 | 0.15 | 25 | 1024.2 |
| 20260506214022 | 59 | 307 | 10.0 | 18.0 | 0.00 | 0.17 | 0.15 | 25 | 1024.4 |
| 20260506213520 | 59 | 25 | 5.0 | 16.0 | 0.00 | 0.17 | 0.15 | 25 | 1024.3 |
| 20260506213023 | 59 | 314 | 7.0 | 16.0 | 0.00 | 0.17 | 0.15 | 25 | 1024.3 |
| 20260506212521 | 59 | 320 | 7.0 | 20.0 | 0.00 | 0.17 | 0.15 | 25 | 1024.3 |
| 20260506212021 | 59 | 342 | 9.0 | 19.0 | 0.00 | 0.17 | 0.15 | 25 | 1024.5 |
| 20260506211520 | 59 | 316 | 5.0 | 14.0 | 0.00 | 0.17 | 0.15 | 26 | 1024.5 |
| 20260506211019 | 59 | 289 | 7.0 | 17.0 | 0.00 | 0.17 | 0.15 | 26 | 1024.5 |
| 20260506210518 | 58 | 314 | 7.0 | 17.0 | 0.00 | 0.17 | 0.15 | 26 | 1024.4 |
| 20260506210021 | 59 | 326 | 7.0 | 16.0 | 0.00 | 0.17 | 0.15 | 26 | 1024.3 |
| 20260506205518 | 58 | 319 | 7.0 | 18.0 | 0.00 | 0.17 | 0.15 | 26 | 1024.3 |